Regional Weather Roundup
Issued by NWS

Home | Current Version | Previous Version | Graphics & Text | Print | Product List | Glossary On
Versions: 1 2 3 4 5 6 7 8 9 10 11 12 13 14 15 16 17 18 19 20 21 22 23 24 25 26 27 28 29 30 31 32 33 34 35 36 37 38 39 40 41 42 43 44 45 46 47 48 49 50
000
ASUS45 KBOU 220207
RWRCO

WEATHER ROUNDUP FOR COLORADO
NATIONAL WEATHER SERVICE DENVER/BOULDER CO
700 PM MST SAT JAN 21 2017

NOTE: "FAIR" INDICATES FEW OR NO CLOUDS BELOW 12000 FEET WITH NO
SIGNIFICANT WEATHER AND/OR OBSTRUCTIONS TO VISIBILITY.

COZ001>005-013-030-031-220300-
...NORTHWEST COLORADO...

CITY           SKY/WX    TMP DP  RH WIND       PRES   REMARKS
CRAIG          LGT SNOW  27  23  85 W13       29.69R FOG     WCI  16
HAYDEN         MOCLDY    25  19  80 W16       29.65R WCI  12
MEEKER         LGT SNOW  28  26  92 MISG      29.68R FOG
MOUNT WERNER   NOT AVBL
STEAMBOAT SPGS CLOUDY    26  24  93 SW9       29.63R WCI  16
WALDEN           N/A     18  14  86 CALM      29.60R
$$

COZ006>008-011-220300-
...WEST CENTRAL VALLEYS...

CITY           SKY/WX    TMP DP  RH WIND       PRES   REMARKS
GRAND JUNCTION CLOUDY    34  33  96 W6        29.70R WCI  29
MONTROSE       LGT SNOW  31  30  96 NW12      29.72R FOG     WCI  22
EAGLE          LGT SNOW  27  27 100 CALM      29.65R FOG
RIFLE          FLURRIES  33  32  96 W13       29.67R WCI  24
DELTA          MOCLDY    37  32  84 W21       29.66R
NUCLA          CLOUDY    32  32 100 NW9       29.76R WCI  24
$$

COZ017>023-064>068-220300-
...SOUTHWEST COLORADO...

CITY           SKY/WX    TMP DP  RH WIND       PRES   REMARKS
DURANGO        LGT SNOW  28  24  85 W18       29.65R FOG     WCI  15
CORTEZ         MOCLDY    32  29  88 W13       29.73R WCI  22
PAGOSA SPRINGS NOT AVBL
TELLURIDE      NOT AVBL
WOLF CREEK PAS CLOUDY    12  10  92 SW10      29.63R WCI  -1
$$

COZ009-010-012-014-032>034-037-058>063-220300-
...CENTRAL COLORADO...

CITY           SKY/WX    TMP DP  RH WIND       PRES   REMARKS
ASPEN          LGT SNOW  26  25  96 NW3       29.60R FOG
BUENA VISTA    FAIR      19  17  93 W5        29.55R WCI  12
COPPER MTN     LGT SNOW  18  12  79 MISG      29.56R
BERTHOUD PASS  NOT AVBL
COTTONWOOD PAS CLOUDY    27  16  63 NW5       29.55R WCI  21
GUNNISON       CLOUDY    21  16  81 N6        29.63R WCI  13
KREMMLING      CLOUDY    21  18  86 CALM      29.63R
LEADVILLE      LGT SNOW  18  15  88 N7        29.55R FOG     WCI   9
MONARCH PASS   CLOUDY    12  10  92 NW5       29.66R WCI   4
SALIDA         MOCLDY    28  24  83 CALM      29.62R
SUNLIGHT       CLOUDY    18  14  86 MISG      29.64R
WILKERSON PASS CLOUDY    18  12  79 NW10G16   29.57R WCI   6
$$

COZ069>075-220300-
...SAN LUIS VALLEY/SANGRE DE CRISTO MOUNTAINS...

CITY           SKY/WX    TMP DP  RH WIND       PRES   REMARKS
ALAMOSA        CLOUDY    22  21  96 SW5       29.56R WCI  16
LA VETA PASS   CLOUDY    19  18  93 NE21G29   29.51R WCI   3
SAGUACHE       CLOUDY    27  19  74 N7        29.57R WCI  19
$$

COZ035-036-038>040-220300-
...NORTHERN COLORADO FRONT RANGE...

CITY           SKY/WX    TMP DP  RH WIND       PRES   REMARKS
DENVER INTL AP MOCLDY    33  25  72 NW7       29.53R WCI  27
DMNS CITY PARK   N/A     34  24  67 MISG      29.55R
AURORA         MOCLDY    31  28  85 CALM      29.54R
FRONT RANGE AP MOCLDY    34  28  80 W3        29.54R
ERIE MUNI ARPT CLOUDY    33  29  85 CALM      29.55R
BOULDER MUN AP MOCLDY    36  27  69 CALM      29.55R
CENTENNIAL     MOCLDY    34  24  67 NW3       29.54R
BROOMFIELD     MOCLDY    36  27  69 NW7       29.54R
FORT COLLINS   FAIR      34  27  75 N3        29.56R
LONGMONT       FAIR      34  28  79 NW3       29.57R
$$

COZ041-046-047-076>085-087-088-220300-
...PIKES PEAK/PALMER DIVIDE AND SOUTHERN FOOTHILLS...

CITY           SKY/WX    TMP DP  RH WIND       PRES   REMARKS
COLO. SPRINGS  MOCLDY    29  22  75 N9        29.53R WCI  20
A. F. ACADEMY  FAIR      30  18  61 N9        29.52R WCI  22
SCHRIEVER AFB  NOT AVBL
ELLICOTT       FAIR     N/A N/A N/A NE7       29.51R
FALCON         NOT AVBL
FORT CARSON    NOT AVBL
LIMON          CLOUDY    29  27  92 NE6       29.52R WCI  23
MONUMENT HILL  FAIR      25  21  86 NW6       29.54R WCI  18
TRINIDAD       FAIR      30  24  78 NW6       29.50R WCI  24
$$

COZ042>045-048>051-090-091-220300-
...NORTHEAST COLORADO...

CITY           SKY/WX    TMP DP  RH WIND       PRES   REMARKS
GREELEY ARPT   NOT AVBL
AKRON          MOCLDY    33  25  72 E3        29.53R
BURLINGTON     FAIR      35  30  82 NE7       29.50R WCI  29
WRAY           NOT AVBL
STERLING       MOCLDY    34  28  80 N3        29.53R
HOLYOKE        FAIR      34  28  80 N6        29.54R WCI  29
FORT MORGAN    FAIR      32  24  72 N6        29.55R WCI  26
$$

COZ086-089-092>099-220300-
...SOUTHEAST COLORADO...

CITY           SKY/WX    TMP DP  RH WIND       PRES   REMARKS
PUEBLO         CLOUDY    34  28  79 NW6       29.52R WCI  29
LA JUNTA       CLOUDY    35  31  85 W10       29.49R WCI  27
LAMAR          CLOUDY    35  31  85 CALM      29.45R
SPRINGFIELD      N/A     35  32  88 NW16      29.42R WCI  25
$$



USA.gov is the U.S. government's official web portal to all federal, state and local government web resources and services.